Погода в Форте Майерсе

США     26°38′24″N   81°52′22″W
темп.,
°C
ветер,
м/с
пор.,
м/с
влажн.,
%
обл.,
%
осадки,
мм/ч
давл.,
гПа
погр.,
м
16 июня, ср
ср1623:00+27ююз2573100 0.1 1017249
02:00+26ю2477100 0.1 1016154
05:00+25ю2580100 0.0 1015236
08:00+26ююз2676100 0.0 1016360
11:00+29зюз5763100 0.9 1017907
14:00+27ююз2368100 1.8 1017541
17:00+26зсз2472100 0.9 1016359
20:00+23юв4584100 1.3 1017244
17 июня, чт
чт1723:00+22ююв51090100 0.0 1018497
02:00+22ююв3692100 0.0 1017347
05:00+22ю3693100 0.1 1015261
08:00+22ююв2491100 1.4 1016176
11:00+25ю3678100 0.8 1018652
14:00+27ю3464100 0.8 1017822
17:00+28юв2258100 0.0 1016883
20:00+26вюв2371100 0.0 101778
18 июня, пт
пт1823:00+24в2285100 1.0 101865
02:00+24в3585100 1.0 1017140
05:00+23в2585100 0.0 1017170
08:00+24в3983100 0.0 1018339
11:00+28вюв6966100 0.0 1019768
14:00+32вюв4647100 0.0 10181936
17:00+30в1455100 0.3 1017349
20:00+24ссв3585100 5.4 1019106
19 июня, сб
сб1923:00+25всв3982100 0.1 1019253
02:00+25вюв3783100 0.1 1018262
05:00+25в3584100 0.0 1017126
08:00+26вюв4882100 0.0 1019405
11:00+31юв5653100 0.0 10191284
14:00+34юв5638100 0.0 10172113
17:00+33юз6647100 0.0 10161201
20:00+30ююз466296 0.0 1017541
20 июня, вс
вс2023:00+28ю2575100 0.3 1018175
02:00+26вюв357496 0.3 1017161
05:00+25юв2682100 0.0 1016209
08:00+27юв478069 0.0 1017423
11:00+32ю555598 0.0 10181572
14:00+36юз6541100 0.1 10162506
17:00+33юз7650100 0.0 10151479
20:00+29юз4566100 0.0 1016787